Apalachicola, FL

11:56 PM EDT on May 22, 2017 (GMT -0400)
Apalachicola Municipal

Weather History for KAAF - May, 2013

Change the Weather History Date:

Sunday, May 12, 2013

  Actual Average Record
Temperature  
Mean Temperature 72 °F 73 °F  
Max Temperature 81 °F 84 °F 91 °F (1998)
Min Temperature 63 °F 63 °F 47 °F (1981)
Degree Days  
Heating Degree Days 0    
Month to date heating degree days 9  
Since 1 July heating degree days 1129  
Cooling Degree Days 7    
Month to date cooling degree days 53  
Year to date cooling degree days 250  
Growing Degree Days 22 (Base 50)    
Moisture  
Dew Point 64 °F    
Average Humidity 74    
Maximum Humidity 93    
Minimum Humidity 54    
Precipitation  
Precipitation 0.00 in 0.07 in 0.95 in (1962)
Month to date precipitation 1.38 0.83  
Year to date precipitation 19.28 17.71  
Sea Level Pressure  
Sea Level Pressure 30.01 in    
Wind  
Wind Speed 4 mph (NNW)    
Max Wind Speed 7 mph    
Max Gust Speed 8 mph    
Visibility 8 miles    
Events Fog    
T = Trace of Precipitation, MM = Missing Value Source: NWS Daily Summary

Daily Weather History Graph

Daily Weather History Graph

Search for Another Location

Airport or City:

Trip Planner

Search our weather history database for the weather conditions in past years. The results will help you decide how hot, cold, wet, or windy it might be!

Date:

Astronomy

May. 12, 2013 Rise Set
Actual Time 6:48 AM EDT 8:24 PM EDT
Civil Twilight 6:23 AM EDT 8:50 PM EDT
Nautical Twilight 5:52 AM EDT 9:21 PM EDT
Astronomical Twilight 5:19 AM EDT 9:54 PM EDT
Moon 8:46 AM EDT (5/12) 10:48 PM EDT (5/12)
Length of Visible Light 14h 27m
Length of Day
13h 35m
Waxing Crescent, 6% of the Moon is Illuminated
May 12
Waxing Crescent
May 18
First Quarter
May 25
Full
May 31
Last Quarter
Jun 8
New

Hourly Weather History & Observations

Time (EDT) Temp. Heat Index Dew Point Humidity Pressure Visibility Wind Dir Wind Speed Gust Speed Precip Events Conditions
12:53 AM 68.0 °F - 64.9 °F 90% 29.99 in 10.0 mi NNW 3.5 mph - N/A   Clear
1:53 AM 68.0 °F - 64.9 °F 90% 29.97 in 10.0 mi Calm Calm - N/A   Clear
2:53 AM 66.9 °F - 64.0 °F 90% 29.97 in 9.0 mi Calm Calm - N/A   Clear
3:21 AM 64.4 °F - 62.6 °F 94% 29.97 in 2.0 mi Calm Calm - N/A   Partly Cloudy
3:24 AM 64.4 °F - 62.6 °F 94% 29.97 in 1.0 mi Calm Calm - N/A   Mist
3:31 AM 64.4 °F - 62.6 °F 94% 29.97 in 0.8 mi Calm Calm - N/A   Mist
3:45 AM 64.4 °F - 62.6 °F 94% 29.97 in 1.8 mi Calm Calm - N/A   Mostly Cloudy
3:47 AM 66.2 °F - 62.6 °F 88% 29.97 in 3.0 mi Calm Calm - N/A   Mostly Cloudy
3:53 AM 66.0 °F - 63.0 °F 90% 29.98 in 10.0 mi Calm Calm - N/A   Scattered Clouds
4:29 AM 66.2 °F - 62.6 °F 88% 29.97 in 1.8 mi Calm Calm - N/A   Clear
4:39 AM 64.4 °F - 62.6 °F 94% 29.98 in 0.5 mi Calm Calm - N/A Fog Fog
4:53 AM 64.9 °F - 62.1 °F 90% 29.98 in 0.5 mi Calm Calm - N/A Fog Fog
5:01 AM 64.4 °F - 62.6 °F 94% 29.98 in 1.2 mi Calm Calm - N/A   Partly Cloudy
5:13 AM 64.4 °F - 62.6 °F 94% 29.98 in 1.0 mi Calm Calm - N/A   Mist
5:17 AM 64.4 °F - 60.8 °F 88% 29.98 in 2.5 mi Calm Calm - N/A   Clear
5:35 AM 64.4 °F - 60.8 °F 88% 29.98 in 9.0 mi Calm Calm - N/A   Clear
5:53 AM 64.0 °F - 61.0 °F 90% 29.99 in 10.0 mi Calm Calm - N/A   Clear
6:37 AM 64.4 °F - 60.8 °F 88% 30.00 in 2.5 mi Calm Calm - N/A   Partly Cloudy
6:44 AM 62.6 °F - 60.8 °F 94% 30.01 in 1.5 mi Calm Calm - N/A   Mostly Cloudy
6:48 AM 62.6 °F - 60.8 °F 94% 30.01 in 3.0 mi Calm Calm - N/A   Mostly Cloudy
6:53 AM 63.0 °F - 61.0 °F 93% 30.01 in 8.0 mi Calm Calm - N/A   Mostly Cloudy
7:15 AM 62.6 °F - 60.8 °F 94% 30.03 in 9.0 mi Calm Calm - N/A   Partly Cloudy
7:53 AM 66.9 °F - 64.9 °F 93% 30.04 in 10.0 mi Calm Calm - N/A   Scattered Clouds
8:04 AM 69.8 °F - 66.2 °F 88% 30.04 in 10.0 mi Calm Calm - N/A   Mostly Cloudy
8:31 AM 69.8 °F - 66.2 °F 88% 30.05 in 10.0 mi North 3.5 mph - N/A   Overcast
8:40 AM 69.8 °F - 66.2 °F 88% 30.05 in 10.0 mi NNW 4.6 mph - N/A   Overcast
8:42 AM 69.8 °F - 66.2 °F 88% 30.05 in 10.0 mi NNW 4.6 mph - N/A   Overcast
8:50 AM 69.8 °F - 66.2 °F 88% 30.05 in 10.0 mi North 6.9 mph - N/A   Overcast
8:53 AM 69.1 °F - 66.0 °F 90% 30.05 in 10.0 mi North 5.8 mph - N/A   Overcast
9:42 AM 71.6 °F - 64.4 °F 78% 30.05 in 10.0 mi NNE 6.9 mph - N/A   Overcast
9:53 AM 70.0 °F - 64.9 °F 84% 30.04 in 10.0 mi North 6.9 mph - N/A   Overcast
10:35 AM 73.4 °F - 64.4 °F 73% 30.05 in 10.0 mi North 8.1 mph - N/A   Scattered Clouds
10:53 AM 73.9 °F - 64.9 °F 73% 30.05 in 10.0 mi Calm Calm - N/A   Partly Cloudy
11:53 AM 78.1 °F - 64.0 °F 62% 30.05 in 10.0 mi Calm Calm - N/A   Mostly Cloudy
12:12 PM 77.0 °F - 64.4 °F 65% 30.05 in 10.0 mi North 6.9 mph - N/A   Overcast
12:28 PM 78.8 °F - 64.4 °F 61% 30.05 in 10.0 mi Variable 6.9 mph - N/A   Mostly Cloudy
1:53 PM 79.0 °F - 66.0 °F 64% 30.03 in 10.0 mi South 6.9 mph - N/A   Mostly Cloudy
2:53 PM 77.0 °F - 64.9 °F 66% 30.04 in 10.0 mi SSW 8.1 mph - N/A   Mostly Cloudy
3:53 PM 79.0 °F - 68.0 °F 69% 30.01 in 10.0 mi South 10.4 mph - N/A   Mostly Cloudy
4:53 PM 81.0 °F 82.5 °F 64.0 °F 56% 30.01 in 10.0 mi Calm Calm - N/A   Mostly Cloudy
5:53 PM 80.1 °F 81.5 °F 63.0 °F 56% 30.01 in 10.0 mi WNW 10.4 mph - N/A   Clear
6:53 PM 77.0 °F - 63.0 °F 62% 30.01 in 10.0 mi WNW 11.5 mph - N/A   Clear
7:53 PM 73.9 °F - 62.1 °F 66% 30.01 in 10.0 mi NW 8.1 mph - N/A   Clear
8:53 PM 72.0 °F - 61.0 °F 68% 30.04 in 10.0 mi NW 8.1 mph - N/A   Clear
9:53 PM 69.1 °F - 62.1 °F 78% 30.06 in 10.0 mi NW 5.8 mph - N/A   Clear
10:53 PM 69.1 °F - 63.0 °F 81% 30.06 in 10.0 mi North 4.6 mph - N/A   Unknown
11:53 PM 68.0 °F - 62.1 °F 81% 30.07 in 10.0 mi Calm Calm - N/A   Clear